Temperature
11 11 12 12 12 12 12 12 13 13 13 13 13 13 13 14 14 14 14 14 14 14 14 14 14 14 14 14 14 14 13 13 13 14 14 14 14 14 15 15 15 15 15
11 11 11 11 12 12 12 12 12 12 12 13 13 13 13 13 13 13 13 13 13 13 13 13 13 13 13 13 13 13 13 13 13 13 13 13 14 14 14 15 15 15 15
11 11 11 11 11 11 11 12 12 12 12 12 12 12 12 13 13 13 13 13 13 13 13 13 13 13 13 13 13 13 13 13 13 13 13 13 13 14 14 14 14 14 14
11 11 11 11 11 11 11 11 11 11 12 12 12 12 12 12 12 12 12 13 13 13 13 13 13 13 13 13 13 13 13 13 13 13 13 13 13 14 14 14 14 14 14
11 10 10 10 10 10 11 11 11 11 11 11 11 11 12 12 12 12 12 12 12 13 13 13 13 13 13 13 13 13 13 13 13 13 13 13 13 13 13 13 13 14 14
11 10 10 10 10 10 10 10 10 11 11 11 11 11 11 12 12 12 12 12 12 12 13 13 13 13 13 13 13 13 13 13 13 13 13 13 13 13 13 13 13 13 13
11 10 10 10 10 10 10 10 10 10 11 11 11 11 11 11 11 12 12 12 12 12 12 12 12 13 13 13 13 13 13 13 13 13 13 13 13 13 13 13 13 13 13
11 10 10 10 10 10 10 10 10 10 10 10 11 11 11 11 11 11 12 11 12 12 12 12 12 12 12 13 13 13 13 13 13 13 13 13 13 13 13 13 13 13 12
11 10 10 10 10 10 10 9 10 10 10 10 10 10 10 10 10 11 11 11 11 11 12 12 12 12 12 13 13 13 13 13 13 13 13 13 13 13 13 12 12 12 12
11 10 10 10 10 10 9 9 9 9 9 9 9 9 9 9 10 10 10 10 10 11 11 11 12 12 12 12 12 13 13 13 13 13 13 13 13 13 13 12 12 12 12
11 11 10 10 10 10 10 9 9 9 9 9 9 9 9 9 9 10 10 10 10 10 10 11 12 12 12 12 12 12 13 13 13 13 13 12 12 12 12 12 12 12 12
11 11 10 10 10 10 10 9 9 9 9 9 9 9 9 9 9 9 9 10 10 10 10 11 11 12 12 12 12 12 13 13 13 12 12 12 12 12 12 12 12 12 12
11 11 10 10 10 10 9 9 9 9 9 8 8 8 8 8 8 9 9 9 9 10 10 11 11 11 12 12 12 12 12 12 12 12 12 12 12 12 12 11 11 11 11
11 11 10 10 10 9 9 9 9 8 8 8 8 8 8 8 9 9 9 9 9 9 10 10 11 11 11 12 12 12 12 12 12 12 12 12 11 11 11 11 11 10 11
11 11 10 10 10 9 9 9 9 8 8 8 8 8 8 8 9 9 9 9 9 9 9 10 10 10 11 11 11 12 12 12 12 12 11 11 11 10 10 10 10 10 10
12 11 11 10 10 10 9 9 9 9 9 8 8 8 8 9 9 9 9 9 9 9 9 10 10 10 11 11 11 11 11 11 11 11 11 11 10 10 10 10 10 10 9
12 11 11 11 10 10 10 9 9 9 9 9 9 9 9 9 9 9 9 9 9 9 10 10 10 10 10 11 11 11 11 11 11 11 10 10 10 10 10 9 9 9 9
12 12 11 11 10 10 10 10 9 9 9 8 9 9 9 10 10 10 10 9 9 10 10 10 10 10 10 10 10 10 10 10 10 10 10 10 10 9 9 9 9 9 8
12 12 12 11 11 11 10 10 10 9 9 9 8 9 10 10 10 10 10 9 9 9 9 9 10 10 10 10 10 10 10 10 10 10 9 9 9 9 9 9 8 8 8
13 13 12 12 11 11 11 10 10 10 10 9 9 9 9 9 9 9 10 9 9 9 9 9 9 10 10 10 10 10 9 9 9 9 9 9 9 8 8 8 8 8 8
13 12 13 12 12 11 11 11 11 10 10 10 9 9 10 9 9 9 9 10 9 9 10 10 10 10 10 10 9 9 9 9 9 9 8 8 8 8 8 8 8 7 7
13 12 12 12 12 12 12 11 11 11 10 10 10 10 10 10 9 9 10 10 10 10 10 10 10 10 10 10 9 9 8 8 8 8 8 8 8 8 7 7 7 7 7
13 13 12 12 12 12 12 12 11 11 11 11 10 10 10 10 9 10 10 10 11 11 11 11 11 11 11 10 10 10 9 8 8 8 8 7 7 7 7 7 7 7 7
13 13 13 12 12 12 12 12 12 12 11 11 11 10 10 10 10 10 10 10 11 11 11 11 11 11 11 11 11 11 10 10 10 9 9 8 7 7 7 7 7 7 7
13 13 13 13 12 12 12 12 12 12 12 12 11 11 11 11 10 10 10 11 11 11 11 11 11 11 11 11 11 11 11 11 10 10 9 8 7 7 7 7 7 7 7
13 13 13 13 13 13 13 12 12 12 12 12 12 12 11 11 11 11 11 11 11 11 11 11 11 11 12 12 12 12 11 11 11 10 10 9 8 8 8 7 7 7 7
Wind_Speed
12 11 11 11 11 11 11 11 10 9 9 9 7 6 6 5 3 3 2 2 2 3 3 5 5 5 4 5 5 6 5 4 4 3 2 3 4 4 3 5 6 8 10
11 11 12 12 11 12 11 11 11 10 10 9 8 7 7 6 5 4 2 2 3 3 3 4 5 4 4 4 4 5 4 4 4 4 4 4 4 2 2 3 4 5 6
11 11 12 12 12 12 11 11 11 11 10 10 10 9 8 7 6 4 3 2 2 3 4 4 4 5 5 4 4 4 4 4 4 4 4 3 3 3 3 4 4 4 6
11 11 12 12 11 11 11 11 11 11 11 11 11 10 9 9 8 5 3 2 1 2 3 3 3 4 4 4 3 4 4 4 4 4 3 4 3 3 4 5 5 5 5
10 11 11 10 10 10 11 11 11 11 12 11 11 11 11 10 10 9 5 3 2 1 1 2 3 3 3 3 3 4 4 4 4 4 4 4 4 4 5 5 6 7 6
9 9 9 9 9 9 10 10 11 11 11 11 11 11 11 10 13 13 9 4 3 2 1 1 3 4 4 5 4 3 2 3 4 4 4 4 5 4 4 5 7 7 4
9 9 9 8 9 9 9 10 10 10 11 11 11 10 10 12 14 13 11 6 4 3 2 1 2 3 3 5 6 6 4 3 1 2 3 3 4 5 5 6 6 6 6
8 8 8 7 7 7 8 9 9 9 9 9 9 9 9 12 15 13 10 5 5 5 4 3 2 4 4 4 6 7 7 5 3 2 5 5 5 4 4 5 8 10 9
7 7 7 7 7 7 8 8 8 8 8 8 8 9 9 11 15 15 11 5 5 5 5 5 3 4 5 3 5 8 9 8 12 15 14 12 12 9 4 7 8 9 7
5 6 6 6 7 7 7 8 7 7 7 7 8 9 9 10 14 15 13 4 4 4 4 4 7 5 5 1 5 7 8 8 8 9 9 9 10 8 3 4 6 7 7
4 4 5 6 6 6 6 6 7 7 7 7 8 8 9 10 11 14 14 7 5 4 4 4 5 6 5 3 2 5 7 7 8 8 8 8 7 7 7 7 6 4 5
3 4 5 5 5 5 6 6 7 7 7 7 8 8 8 8 9 11 12 11 9 4 4 4 5 6 6 5 5 8 7 6 7 7 7 7 7 7 8 9 11 12 10
3 3 4 4 5 5 5 6 6 6 6 7 7 7 7 8 8 9 8 8 9 5 5 8 7 5 6 7 9 7 5 5 6 7 7 7 7 8 8 8 11 13 14
3 3 3 3 4 4 4 5 5 6 6 7 7 7 7 7 9 9 8 5 3 4 5 7 7 8 7 8 6 4 4 5 6 7 8 7 7 6 6 6 7 7 8
3 3 2 2 2 2 3 3 4 5 6 6 7 7 7 8 10 11 9 7 6 4 3 4 5 5 6 6 5 5 5 6 7 7 7 7 6 6 5 4 4 5 6
4 3 2 1 1 0 1 1 2 1 3 4 6 7 6 7 9 9 10 10 9 6 4 6 6 6 5 5 6 6 6 6 6 6 6 6 6 6 5 5 5 5 6
4 3 3 2 1 1 1 2 1 3 4 3 5 6 8 8 9 9 8 7 9 6 6 6 6 5 5 5 5 5 5 5 5 6 6 6 5 5 5 5 5 5 5
4 4 4 3 3 2 1 1 1 2 1 2 4 5 4 6 8 9 8 2 6 7 6 6 6 5 5 5 5 5 5 5 5 5 6 5 5 5 5 5 4 5 5
5 5 5 4 3 3 2 2 1 0 1 1 2 3 3 2 2 5 5 4 5 5 5 5 5 5 4 5 5 5 5 5 5 5 5 5 4 4 4 4 4 4 3
4 3 5 5 4 4 3 3 2 1 1 0 1 2 2 1 3 4 4 4 4 4 4 4 4 4 4 4 4 4 4 5 5 4 4 4 4 4 4 4 4 4 3
5 5 7 6 5 5 4 4 3 3 2 1 1 1 2 2 2 2 2 2 2 2 2 2 2 2 2 2 2 2 3 4 3 3 4 4 4 3 3 3 4 3 4
5 5 5 6 5 5 5 5 4 4 4 3 3 4 5 3 1 1 1 2 2 2 1 1 1 1 1 0 1 2 3 3 3 3 4 4 4 4 4 4 4 4 4
6 5 5 5 6 6 6 6 6 6 5 5 4 4 5 4 3 3 3 3 3 3 3 3 2 2 2 2 2 2 3 3 3 3 4 4 4 4 4 4 5 5 5
7 6 6 6 6 6 7 7 7 7 6 6 6 6 5 5 5 5 4 4 4 5 5 5 4 4 4 4 4 4 3 2 3 4 4 4 5 4 4 4 5 6 5
7 7 6 6 6 6 7 7 7 7 7 7 7 7 7 7 6 6 6 6 6 6 7 7 6 6 6 7 6 6 4 3 3 3 5 5 5 5 5 5 5 6 6
8 8 7 6 6 6 7 7 7 8 7 7 7 7 7 7 8 8 8 7 7 7 7 8 9 8 8 8 8 7 7 6 6 5 6 6 6 6 6 6 6 6 7
Wind_Direction
17 20 25 26 25 29 32 31 30 33 39 46 47 54 59 63 77 107 125 141 158 169 178 187 185 180 184 186 187 191 198 196 199 188 196 192 205 220 193 213 208 203 192
19 24 28 28 30 33 33 30 31 35 37 38 41 48 51 53 55 63 85 122 148 162 165 166 168 164 167 173 178 184 184 190 193 193 191 192 209 202 205 199 196 195 181
22 29 31 31 32 34 34 32 34 36 37 41 42 43 44 42 42 45 55 67 109 148 160 166 163 161 165 166 170 180 180 185 194 198 179 167 186 179 179 171 164 159 148
25 29 31 32 35 37 38 35 35 37 38 37 40 41 40 37 29 23 35 51 87 125 146 158 159 161 166 163 166 176 180 182 189 192 184 178 173 171 188 168 150 133 125
26 30 30 34 38 38 39 38 38 38 39 37 38 37 36 34 24 11 10 19 35 56 116 163 159 160 173 174 176 182 186 189 187 191 186 182 175 176 180 168 148 130 107
28 30 30 32 37 37 37 35 36 37 37 35 34 35 35 31 20 17 3 19 28 49 70 108 153 173 171 172 165 162 183 194 191 190 192 185 170 163 154 158 151 149 123
28 31 30 30 32 31 32 33 31 33 33 32 30 29 30 26 19 20 11 17 35 38 49 81 110 114 138 147 143 148 125 78 349 204 170 150 145 149 157 158 154 136 116
29 31 30 28 29 30 32 30 28 30 33 31 26 23 25 25 18 15 357 31 45 46 47 60 105 121 112 131 142 132 116 92 73 112 108 99 100 121 133 129 120 112 105
32 32 29 30 32 31 30 28 25 24 28 31 30 24 23 24 18 12 355 38 47 51 53 54 67 116 101 117 141 130 117 97 69 68 70 79 70 59 85 131 136 134 123
40 40 37 37 38 35 31 25 25 26 26 29 33 28 26 24 19 14 1 27 44 54 60 70 62 65 95 90 148 137 125 117 115 108 102 105 98 88 49 128 139 139 133
61 54 48 46 45 39 33 29 25 27 28 30 32 33 33 27 22 21 11 18 27 47 57 64 63 61 88 76 124 127 123 125 120 112 102 94 88 83 76 75 79 105 123
99 77 65 54 47 47 41 34 30 27 31 29 26 29 28 29 26 20 20 21 6 46 52 62 71 68 84 75 101 110 122 134 126 121 108 96 89 81 76 76 77 74 76
129 104 86 77 62 48 41 37 33 30 27 24 23 22 20 18 22 20 25 29 18 40 60 58 65 71 106 94 96 117 151 140 127 118 106 98 96 99 96 92 89 85 76
144 125 113 85 78 68 44 34 32 27 22 22 19 14 12 18 17 6 4 21 52 72 88 92 87 71 86 97 118 128 124 112 116 113 113 114 113 110 107 109 109 106 92
166 158 138 105 79 62 60 36 25 38 24 5 10 9 9 9 9 360 1 10 18 36 68 95 98 102 100 100 99 99 106 114 113 119 124 127 124 118 110 104 108 113 111
185 179 177 164 152 17 21 104 146 358 51 34 24 6 34 27 4 11 19 22 20 9 72 83 81 84 90 97 101 99 98 102 113 121 122 124 126 125 119 113 112 113 116
204 193 195 208 214 251 322 348 40 158 169 117 68 42 32 24 21 18 14 23 28 28 74 77 77 77 80 87 93 99 101 105 112 116 118 121 123 123 121 119 119 121 123
211 196 209 214 231 249 281 325 351 6 47 104 118 90 57 40 31 17 347 344 66 61 65 69 72 75 82 91 99 107 111 113 116 119 121 123 127 127 126 127 128 132 137
212 207 210 220 225 238 242 246 254 314 26 46 58 112 121 160 126 29 359 59 69 69 69 69 69 76 84 92 98 105 111 114 118 122 121 125 130 134 134 134 125 119 155
216 205 226 224 223 225 226 228 226 225 239 24 47 40 53 41 54 61 59 62 74 77 76 79 75 73 80 87 98 113 121 124 130 130 130 135 136 139 142 148 152 160 161
223 202 202 229 231 231 232 231 227 227 236 237 214 101 350 358 46 64 72 82 88 97 95 89 85 80 76 85 107 130 142 143 145 148 149 152 152 151 153 156 157 159 156
233 230 225 228 228 229 231 229 226 227 228 229 220 181 192 239 244 177 153 155 152 146 138 154 144 116 108 146 196 192 184 179 175 176 174 169 167 169 170 173 177 177 176
236 238 236 234 232 220 228 231 226 226 227 226 223 216 209 222 224 220 209 196 190 190 188 199 198 192 198 206 218 232 216 195 193 197 190 183 185 186 188 190 193 198 195
230 236 243 243 237 234 230 229 226 226 229 229 225 224 222 221 222 219 214 204 201 201 201 205 210 206 202 205 208 212 212 196 200 198 203 201 199 198 200 202 207 208 203
229 234 240 245 243 239 236 233 231 230 228 229 230 227 224 222 219 214 211 206 206 208 206 207 207 208 209 208 209 206 174 183 230 226 200 207 207 209 215 214 213 209 207
225 232 238 243 244 244 243 240 236 235 235 233 232 230 225 222 219 214 208 205 205 206 207 209 211 209 208 211 208 193 186 199 211 229 231 218 212 214 214 216 213 212 210
Height
1521 1518 1515 1512 1509 1506 1504 1502 1501 1499 1498 1497 1497 1497 1497 1498 1499 1499 1500 1500 1502 1503 1504 1505 1507 1509 1511 1512 1514 1517 1519 1521 1523 1526 1529 1530 1532 1534 1536 1538 1540 1542 1544
1525 1521 1518 1515 1512 1510 1507 1505 1504 1502 1501 1500 1499 1499 1499 1499 1499 1499 1500 1500 1501 1501 1502 1503 1505 1506 1508 1510 1511 1514 1516 1518 1521 1523 1526 1528 1530 1531 1533 1535 1536 1538 1541
1528 1525 1522 1518 1516 1513 1511 1509 1507 1505 1504 1503 1502 1501 1501 1500 1500 1500 1500 1500 1501 1501 1502 1503 1504 1505 1507 1508 1510 1512 1514 1517 1519 1521 1523 1525 1527 1528 1530 1532 1533 1536 1538
1532 1528 1525 1522 1519 1517 1515 1512 1510 1509 1507 1506 1505 1503 1503 1502 1501 1501 1501 1501 1501 1502 1502 1502 1503 1505 1506 1508 1509 1511 1513 1516 1517 1519 1521 1523 1524 1525 1527 1529 1531 1533 1536
1535 1531 1528 1526 1523 1520 1518 1516 1514 1512 1510 1508 1507 1505 1504 1503 1502 1501 1501 1501 1501 1501 1502 1503 1503 1504 1506 1508 1509 1511 1513 1515 1516 1518 1519 1521 1522 1523 1525 1527 1529 1531 1534
1537 1534 1531 1529 1526 1523 1521 1519 1517 1515 1513 1511 1509 1507 1505 1504 1503 1502 1501 1501 1501 1501 1502 1503 1503 1504 1506 1508 1510 1512 1513 1514 1516 1517 1519 1520 1521 1522 1523 1525 1527 1530 1532
1540 1537 1534 1531 1529 1526 1524 1522 1520 1517 1515 1513 1511 1509 1507 1505 1504 1502 1501 1501 1501 1501 1502 1503 1504 1505 1506 1508 1510 1512 1513 1514 1516 1517 1518 1519 1520 1520 1522 1524 1526 1529 1530
1542 1539 1536 1533 1531 1529 1527 1524 1522 1520 1517 1515 1512 1510 1508 1506 1504 1503 1502 1502 1501 1501 1502 1503 1504 1505 1507 1508 1510 1512 1514 1515 1516 1517 1518 1518 1519 1520 1522 1524 1526 1528 1531
1544 1541 1538 1536 1533 1531 1529 1527 1524 1522 1519 1517 1514 1512 1510 1508 1505 1504 1502 1502 1502 1502 1502 1503 1504 1506 1507 1509 1511 1513 1514 1515 1516 1517 1518 1519 1520 1521 1522 1524 1526 1529 1531
1544 1542 1539 1537 1535 1533 1530 1528 1526 1523 1521 1519 1516 1514 1511 1509 1507 1504 1503 1503 1503 1503 1503 1503 1505 1506 1508 1510 1512 1514 1516 1517 1518 1519 1520 1521 1522 1523 1525 1527 1528 1530 1532
1545 1543 1541 1539 1536 1534 1532 1529 1527 1525 1523 1521 1519 1516 1514 1511 1508 1506 1504 1503 1503 1503 1504 1504 1505 1507 1509 1511 1513 1516 1517 1519 1520 1522 1523 1524 1525 1526 1527 1528 1530 1532 1534
1546 1544 1542 1540 1538 1536 1534 1531 1529 1527 1525 1523 1521 1519 1516 1513 1511 1508 1506 1505 1504 1504 1505 1505 1506 1508 1510 1512 1515 1516 1519 1521 1522 1523 1525 1526 1527 1528 1529 1530 1531 1532 1534
1547 1545 1543 1541 1539 1537 1535 1533 1531 1529 1527 1525 1523 1521 1519 1516 1513 1511 1509 1507 1506 1505 1505 1506 1507 1509 1511 1514 1516 1518 1521 1523 1524 1525 1526 1528 1529 1530 1532 1533 1534 1535 1536
1548 1546 1545 1543 1541 1539 1537 1535 1533 1531 1529 1527 1525 1523 1521 1519 1516 1513 1511 1510 1509 1508 1508 1508 1509 1511 1513 1515 1517 1520 1522 1524 1526 1527 1528 1530 1531 1532 1534 1535 1536 1537 1538
1548 1547 1546 1544 1543 1541 1539 1536 1534 1532 1530 1528 1526 1525 1522 1520 1518 1515 1513 1512 1511 1511 1511 1511 1512 1514 1515 1517 1519 1521 1523 1525 1527 1529 1530 1532 1533 1534 1535 1536 1538 1539 1540
1549 1548 1547 1545 1544 1542 1540 1538 1536 1533 1531 1529 1527 1525 1524 1521 1519 1518 1516 1514 1514 1513 1514 1514 1515 1516 1517 1519 1521 1523 1525 1527 1529 1530 1532 1533 1534 1536 1537 1537 1538 1539 1540
1548 1547 1546 1545 1544 1543 1541 1540 1538 1535 1532 1530 1528 1527 1525 1523 1521 1520 1518 1517 1517 1517 1517 1517 1517 1518 1520 1521 1523 1525 1527 1528 1530 1531 1533 1534 1535 1536 1537 1538 1539 1540 1540
1547 1546 1545 1545 1544 1543 1542 1540 1538 1537 1535 1533 1530 1528 1526 1524 1523 1522 1521 1520 1520 1520 1520 1520 1521 1521 1522 1524 1525 1527 1528 1530 1531 1533 1534 1535 1536 1537 1537 1538 1539 1539 1540
1545 1545 1544 1544 1543 1542 1541 1540 1539 1537 1536 1534 1532 1530 1528 1526 1525 1524 1523 1523 1523 1522 1522 1523 1523 1524 1525 1526 1527 1528 1530 1531 1532 1533 1534 1535 1536 1537 1537 1538 1538 1538 1539
1542 1542 1542 1542 1542 1541 1541 1540 1539 1537 1536 1535 1533 1532 1529 1528 1527 1526 1525 1524 1524 1524 1524 1525 1525 1526 1527 1527 1528 1529 1531 1531 1532 1533 1534 1535 1535 1536 1536 1537 1537 1538 1538
1540 1540 1540 1540 1540 1540 1540 1539 1538 1537 1536 1535 1534 1531 1530 1529 1528 1526 1526 1525 1525 1525 1525 1525 1526 1526 1527 1528 1528 1529 1531 1531 1532 1533 1533 1534 1534 1535 1535 1536 1536 1537 1537
1537 1537 1537 1538 1538 1537 1537 1537 1537 1536 1535 1534 1533 1531 1530 1529 1528 1527 1526 1525 1525 1524 1524 1524 1525 1525 1525 1526 1527 1528 1529 1530 1531 1531 1532 1533 1533 1533 1534 1534 1535 1536 1536
1534 1534 1534 1534 1534 1534 1534 1534 1534 1534 1533 1533 1532 1531 1529 1529 1528 1527 1526 1525 1524 1524 1524 1523 1523 1523 1524 1524 1525 1525 1527 1527 1528 1529 1530 1531 1531 1532 1533 1533 1533 1534 1535
1530 1530 1530 1530 1530 1531 1531 1531 1531 1531 1531 1531 1530 1529 1528 1528 1527 1526 1525 1524 1524 1523 1523 1523 1522 1522 1522 1522 1522 1523 1523 1524 1525 1526 1527 1528 1529 1530 1531 1531 1532 1533 1533
1525 1526 1526 1526 1527 1527 1527 1528 1528 1528 1528 1527 1527 1527 1526 1526 1525 1524 1524 1523 1522 1522 1522 1521 1521 1521 1521 1521 1521 1521 1521 1522 1522 1523 1524 1525 1526 1527 1528 1529 1530 1530 1531
1521 1521 1522 1522 1522 1522 1523 1523 1524 1524 1524 1524 1524 1523 1523 1523 1522 1522 1521 1521 1520 1520 1520 1520 1520 1519 1519 1519 1519 1519 1520 1520 1521 1521 1522 1523 1524 1525 1526 1527 1527 1528 1528